sat.trackr.live / text

‹ back to catalog

STARLINK-1321

NORAD 45573 · 2020-025AU

PAYLOAD ACTIVE UNKNOWN

§ Identity

Operator
Country
US
Launch date
2020-04-22
Launch site
AFETR
Launch vehicle
Mass (kg)
RCS (m²)

Purposes: comms

External: N2YO · Heavens-Above · Gunter

§ Orbital elements

Epoch: 2026-09-20T01:06:17.233056Z

Period
91.00 min
Inclination
53.0334°
Eccentricity
0.0005479
Mean motion
15.82408952 rev/d
Perigee alt
320.0 km
Apogee alt
327.3 km
Semi-major
6,701.8 km
B*
4.3284e-4
RAAN
183.2595°
Arg perigee
91.3829°
Mean anomaly
268.7820°
Rev number
35,591

§ Raw data

STARLINK-13211 45573U 20025AU  26263.04603279  .00092103  00000+0  43284-3 0  99912 45573  53.0334 183.2595 0005479  91.3829 268.7820 15.82408952355914

JSON: /api/v1/satellites/45573 · /tle

For live sub-satellite position, see the globe view (requires WebGL).

§ Visibility from observer

Set your observer location to see the next 7 days of passes ≥ 10°. The values pass through the URL so the page stays shareable.

No JS? Fill the form by hand. The geolocation button needs JavaScript.